Weather History for KMCK - December, 2011

Change the Weather History Date:

Thursday, December 22, 2011

  Actual Average Record
Temperature  
Mean Temperature 22 °F 27 °F  
Max Temperature 33 °F 40 °F 72 °F (1933)
Min Temperature 10 °F 14 °F -27 °F (1989)
Degree Days  
Heating Degree Days 42    
Moisture  
Dew Point 23 °F    
Average Humidity 84    
Maximum Humidity 100    
Minimum Humidity 56    
Precipitation  
Precipitation T in 0.03 in 0.29 in (1966)
Month to date precipitation 0.45 0.47  
Year to date precipitation 19.65 22.36  
Sea Level Pressure  
Sea Level Pressure 30.28 in    
Wind  
Wind Speed 16 mph (North)    
Max Wind Speed 24 mph    
Max Gust Speed 30 mph    
Visibility 6 miles    
Events Snow    
T = Trace of Precipitation, MM = Missing Value Source: NWS Daily Summary

Daily Weather History Graph

Daily Weather History Graph

Search for Another Location

Airport or City:

Trip Planner

Search our weather history database for the weather conditions in past years. The results will help you decide how hot, cold, wet, or windy it might be!

Date:

Astronomy

Dec. 22, 2011 Rise Set
Actual Time 8:01 AM CST 5:20 PM CST
Civil Twilight 7:31 AM CST 5:50 PM CST
Nautical Twilight 6:56 AM CST 6:25 PM CST
Astronomical Twilight 6:23 AM CST 6:58 PM CST
Moon 5:47 AM CST (12/22) 3:32 PM CST (12/22)
Length of Visible Light 10h 19m
Length of Day
9h 18m
Waning Crescent, 5% of the Moon is Illuminated
Dec 22
Waning Crescent
Dec 24
New
Jan 1
First Quarter
Jan 9
Full
Jan 16
Last Quarter

Hourly Weather History & Observations

Time (CST) Temp. Windchill Dew Point Humidity Pressure Visibility Wind Dir Wind Speed Gust Speed Precip Events Conditions
12:14 AM 33.8 °F 22.8 °F 30.2 °F 87% 30.04 in 2.0 mi NNE 18.4 mph - 0.00 in Snow Light Snow
12:20 AM 33.8 °F 23.9 °F 30.2 °F 87% 30.05 in 2.0 mi NNE 15.0 mph - 0.00 in Snow Light Snow
12:29 AM 33.8 °F 23.2 °F 30.2 °F 87% 30.05 in 1.8 mi NNE 17.3 mph - 0.00 in Snow Light Snow
12:53 AM 32.0 °F 20.5 °F 30.9 °F 96% 30.10 in 1.8 mi NNE 18.4 mph - 0.00 in Snow Light Snow
1:02 AM 32.0 °F 20.1 °F 30.2 °F 93% 30.06 in 2.0 mi NNE 19.6 mph - 0.00 in Snow Light Snow
1:29 AM 32.0 °F 19.8 °F 30.2 °F 93% 30.07 in 3.0 mi NNE 20.7 mph - 0.00 in Snow Light Snow
1:53 AM 32.0 °F 20.1 °F 30.0 °F 92% 30.12 in 3.0 mi NNE 19.6 mph 26.5 mph 0.00 in Snow Light Snow
2:07 AM 32.0 °F 19.5 °F 30.2 °F 93% 30.09 in 3.0 mi NNE 21.9 mph 29.9 mph 0.00 in Snow Light Snow
2:31 AM 32.0 °F 20.8 °F 30.2 °F 93% 30.11 in 2.5 mi NNE 17.3 mph 26.5 mph 0.00 in Snow Light Snow
2:37 AM 32.0 °F 21.2 °F 30.2 °F 93% 30.11 in 3.0 mi NNE 16.1 mph - 0.00 in Snow Light Snow
2:46 AM 32.0 °F 20.5 °F 30.2 °F 93% 30.12 in 3.0 mi NNE 18.4 mph - 0.00 in Snow Light Snow
2:53 AM 32.0 °F 20.5 °F 30.0 °F 92% 30.16 in 3.0 mi NNE 18.4 mph 27.6 mph 0.00 in Snow Light Snow
3:31 AM 30.2 °F 18.9 °F 30.2 °F 100% 30.15 in 2.5 mi NNE 16.1 mph - 0.00 in Snow Light Snow
3:53 AM 30.9 °F 17.8 °F 28.9 °F 92% 30.20 in 2.5 mi NNE 23.0 mph 28.8 mph 0.00 in Snow Light Snow
4:01 AM 30.2 °F 17.1 °F 28.4 °F 93% 30.16 in 4.0 mi NNE 21.9 mph 29.9 mph 0.00 in Snow Light Snow
4:44 AM 30.2 °F 18.5 °F 26.6 °F 86% 30.18 in 6.0 mi NNE 17.3 mph - 0.00 in Snow Light Snow
4:51 AM 30.2 °F 19.8 °F 26.6 °F 86% 30.18 in 8.0 mi NNE 13.8 mph - 0.00 in Snow Light Snow
4:53 AM 30.0 °F 19.1 °F 27.0 °F 88% 30.24 in 8.0 mi NNE 15.0 mph - 0.00 in   Overcast
5:10 AM 30.2 °F 21.3 °F 28.4 °F 93% 30.19 in 2.5 mi NNE 10.4 mph - 0.00 in Snow Light Snow
5:15 AM 30.2 °F 21.3 °F 28.4 °F 93% 30.19 in 3.0 mi NNE 10.4 mph - 0.00 in Snow Light Snow
5:43 AM 30.2 °F 20.8 °F 28.4 °F 93% 30.21 in 5.0 mi NNE 11.5 mph - 0.00 in Snow Light Snow
5:53 AM 30.0 °F 20.5 °F 28.0 °F 92% 30.27 in 4.0 mi NNE 11.5 mph - 0.00 in Snow Light Snow
6:53 AM 30.0 °F 16.3 °F 26.1 °F 85% 30.31 in 10.0 mi North 24.2 mph 29.9 mph 0.00 in   Overcast
7:53 AM 28.4 °F 16.2 °F 23.0 °F 80% 30.29 in 10.0 mi NNE 17.3 mph 26.5 mph N/A   Overcast
8:53 AM 26.6 °F 14.3 °F 19.4 °F 74% 30.34 in 10.0 mi NNE 16.1 mph 24.2 mph N/A   Overcast
9:53 AM 26.1 °F 13.1 °F 19.9 °F 78% 30.46 in 10.0 mi NNE 17.3 mph - N/A   Overcast
10:43 AM 26.6 °F 13.4 °F 19.4 °F 74% 30.40 in 10.0 mi NNE 18.4 mph - N/A   Mostly Cloudy
10:53 AM 26.1 °F 12.7 °F 19.0 °F 75% 30.48 in 10.0 mi NNE 18.4 mph - N/A   Partly Cloudy
11:53 AM 28.0 °F 19.3 °F 19.9 °F 72% 30.47 in 10.0 mi North 9.2 mph - N/A   Clear
12:53 PM 28.0 °F 17.5 °F 19.0 °F 69% 30.45 in 10.0 mi North 12.7 mph - N/A   Clear
1:53 PM 27.0 °F 17.3 °F 18.0 °F 69% 30.45 in 10.0 mi NNW 10.4 mph - N/A   Clear
2:53 PM 28.9 °F 18.6 °F 15.1 °F 56% 30.45 in 10.0 mi North 12.7 mph - N/A   Clear
3:53 PM 28.0 °F 19.3 °F 17.1 °F 63% 30.46 in 10.0 mi NNW 9.2 mph - N/A   Clear
4:53 PM 26.6 °F 19.1 °F 15.8 °F 64% 30.38 in 10.0 mi North 6.9 mph - N/A   Clear
5:53 PM 19.9 °F 9.3 °F 12.9 °F 74% 30.50 in 10.0 mi NNW 9.2 mph - N/A   Clear
6:53 PM 17.1 °F 6.6 °F 10.9 °F 77% 30.52 in 10.0 mi NNW 8.1 mph - N/A   Clear
7:53 PM 15.8 °F 4.2 °F 10.4 °F 79% 30.42 in 10.0 mi NW 9.2 mph - N/A   Clear
8:53 PM 16.0 °F 4.4 °F 10.0 °F 77% 30.53 in 10.0 mi WNW 9.2 mph - N/A   Clear
9:53 PM 12.0 °F 1.5 °F 9.0 °F 88% 30.55 in 10.0 mi West 6.9 mph - N/A   Clear
10:53 PM 12.0 °F 1.5 °F 8.1 °F 84% 30.55 in 10.0 mi WSW 6.9 mph - N/A   Clear
11:53 PM 10.0 °F -0.9 °F 7.0 °F 87% 30.55 in 10.0 mi West 6.9 mph - N/A   Clear